Location: Caltech
(34.1382°N, 118.1253°W)
Time: 18:45:18
(UTC-08:00)

Cosmos 1484 Rocket - Visible Passes

Search period start: 05 February 2016 00:00
Search period end: 15 February 2016 00:00
Orbit: 508 x 566 km, 97.4° (Epoch: 05 February)

Date Brightness Start Highest point End Pass type
(mag) Time Alt. Az. Time Alt. Az. Time Alt. Az.
05 Feb 5.0 19:11:21 10° SSW 19:14:29 26° W 19:17:38 10° NW visible
06 Feb 4.5 19:02:51 10° SSW 19:06:13 33° W 19:09:36 10° NNW visible
07 Feb 3.9 18:54:26 10° S 18:57:58 43° W 19:01:32 10° NNW visible
08 Feb 3.3 18:46:05 10° S 18:49:43 57° W 18:53:24 10° NNW visible
09 Feb 2.8 18:37:46 10° S 18:41:29 76° W 18:45:13 10° NNW visible
10 Feb 6.1 06:16:58 10° NE 06:19:29 16° E 06:22:01 10° SE visible
10 Feb 2.5 18:29:33 10° SSE 18:33:15 82° ENE 18:36:59 10° N visible
11 Feb 6.4 06:09:22 10° ENE 06:11:12 13° E 06:13:03 10° ESE visible
11 Feb 2.6 18:21:21 10° SSE 18:25:01 62° ENE 18:28:43 10° N visible
12 Feb 2.9 18:13:13 10° SSE 18:16:48 47° ENE 18:20:23 10° N visible
13 Feb 3.2 18:05:09 10° SE 18:08:34 36° ENE 18:12:01 10° N visible
13 Feb 6.2 19:42:21 10° WSW 19:43:12 11° W 19:44:04 10° W visible
14 Feb 3.5 17:57:09 10° SE 18:00:22 28° ENE 18:03:36 10° NNE visible
14 Feb 6.0 19:32:56 10° SW 19:34:54 14° W 19:36:52 10° WNW visible
